Weather History for KPSP - February, 2013

Change the Weather History Date:

Saturday, February 23, 2013

  Actual Average Record
Temperature  
Mean Temperature 57 °F 62 °F  
Max Temperature 71 °F 74 °F 94 °F (1947)
Min Temperature 42 °F 49 °F 29 °F (1953)
Degree Days  
Heating Degree Days 8 4  
Month to date heating degree days 133 133  
Since 1 July heating degree days 709 760  
Cooling Degree Days 0 1  
Month to date cooling degree days 11 22  
Year to date cooling degree days 12 30  
Growing Degree Days 8 (Base 50)    
Moisture  
Dew Point 30 °F    
Average Humidity 42    
Maximum Humidity 65    
Minimum Humidity 19    
Precipitation  
Precipitation 0.00 in 0.05 in 0.50 in (1930)
Month to date precipitation 0.32 0.84  
Year to date precipitation 0.93 1.84  
Since 1 July precipitation 2.15  
Snow  
Snow 0.00 in - - ()
Month to date snowfall 0.0  
Year to date snowfall 0.0  
Since 1 July snowfall 0.0  
Snow Depth 0.00 in    
Sea Level Pressure  
Sea Level Pressure 29.96 in    
Wind  
Wind Speed 5 mph (North)    
Max Wind Speed 12 mph    
Max Gust Speed 15 mph    
Visibility 10 miles    
Events      
T = Trace of Precipitation, MM = Missing Value Source: NWS Daily Summary

Daily Weather History Graph

Daily Weather History Graph

Search for Another Location

Airport or City:

Trip Planner

Search our weather history database for the weather conditions in past years. The results will help you decide how hot, cold, wet, or windy it might be!

Date:

Astronomy

Feb. 23, 2013 Rise Set
Actual Time 6:21 AM PST 5:37 PM PST
Civil Twilight 5:56 AM PST 6:02 PM PST
Nautical Twilight 5:27 AM PST 6:31 PM PST
Astronomical Twilight 4:58 AM PST 7:00 PM PST
Moon 3:55 PM PST (2/23) 4:43 AM PST (2/23)
Length of Visible Light 12h 06m
Length of Day
11h 16m
Waxing Gibbous, 96% of the Moon is Illuminated
Feb 23
Waxing Gibbous
Feb 25
Full
Mar 4
Last Quarter
Mar 11
New
Mar 19
First Quarter

Hourly Weather History & Observations

Time (PST) Temp. Windchill Dew Point Humidity Pressure Visibility Wind Dir Wind Speed Gust Speed Precip Events Conditions
12:53 AM 48.9 °F - 28.9 °F 46% 30.13 in 10.0 mi NW 3.5 mph - N/A   Clear
1:53 AM 48.0 °F - 33.1 °F 56% 30.10 in 10.0 mi Calm Calm - N/A   Clear
2:53 AM 46.9 °F - 32.0 °F 56% 30.09 in 10.0 mi NNW 4.6 mph - N/A   Clear
3:53 AM 46.0 °F 43.9 °F 32.0 °F 58% 30.07 in 10.0 mi NW 4.6 mph - N/A   Clear
4:53 AM 46.9 °F - 30.9 °F 54% 30.05 in 10.0 mi NW 5.8 mph - N/A   Clear
5:53 AM 45.0 °F 43.5 °F 33.1 °F 63% 30.06 in 10.0 mi WSW 3.5 mph - N/A   Clear
6:53 AM 46.0 °F 44.8 °F 33.1 °F 61% 30.04 in 10.0 mi NW 3.5 mph - N/A   Clear
7:53 AM 53.1 °F - 32.0 °F 45% 30.04 in 10.0 mi Calm Calm - N/A   Scattered Clouds
8:53 AM 57.0 °F - 28.0 °F 33% 30.04 in 10.0 mi SSE 3.5 mph - N/A   Scattered Clouds
9:53 AM 61.0 °F - 26.1 °F 26% 30.01 in 10.0 mi SSE 6.9 mph - N/A   Scattered Clouds
10:53 AM 63.0 °F - 28.0 °F 27% 29.98 in 10.0 mi ESE 6.9 mph - N/A   Clear
11:53 AM 66.0 °F - 28.0 °F 24% 29.94 in 10.0 mi ESE 9.2 mph - N/A   Clear
12:53 PM 68.0 °F - 25.0 °F 20% 29.88 in 10.0 mi SE 8.1 mph - N/A   Clear
1:53 PM 69.1 °F - 27.0 °F 21% 29.85 in 10.0 mi SSE 9.2 mph - N/A   Clear
2:53 PM 69.1 °F - 27.0 °F 21% 29.81 in 10.0 mi Calm Calm - N/A   Clear
3:53 PM 70.0 °F - 28.9 °F 22% 29.78 in 10.0 mi ESE 5.8 mph - N/A   Clear
4:53 PM 68.0 °F - 30.0 °F 24% 29.77 in 10.0 mi ESE 5.8 mph - N/A   Clear
5:53 PM 66.0 °F - 32.0 °F 28% 29.80 in 10.0 mi ESE 5.8 mph - N/A   Clear
6:53 PM 63.0 °F - 32.0 °F 31% 29.83 in 10.0 mi Calm Calm - N/A   Clear
7:53 PM 62.1 °F - 34.0 °F 35% 29.87 in 10.0 mi NW 18.4 mph 26.5 mph N/A   Clear
8:53 PM 60.1 °F - 36.0 °F 41% 29.89 in 10.0 mi NW 18.4 mph 23.0 mph N/A   Clear
9:53 PM 59.0 °F - 37.0 °F 44% 29.94 in 10.0 mi NNW 16.1 mph - N/A   Clear
10:53 PM 60.1 °F - 27.0 °F 28% 29.97 in 10.0 mi NW 15.0 mph 24.2 mph N/A   Clear
11:53 PM 59.0 °F - 17.1 °F 20% 30.00 in 10.0 mi North 16.1 mph - N/A   Clear